Location: Cabri�res
(43.7840°N, 5.4986°E)
Time: 09:32:43
(UTC+00:00)

ATLAS CENTAUR R/B - Visible Passes

Search period start: 13 August 2020 00:00
Search period end: 23 August 2020 00:00
Orbit: 475 x 672 km, 64.7° (Epoch: 13 July)

Date Brightness Start Highest point End Pass type
(mag) Time Alt. Az. Time Alt. Az. Time Alt. Az.
13 Aug 2.3 02:08:14 35° SE 02:08:34 35° ESE 02:12:13 10° NE visible
13 Aug 2.7 03:44:25 12° W 03:47:30 26° NW 03:50:50 10° NNE visible
14 Aug 1.6 02:11:01 56° SE 02:11:08 56° ESE 02:15:01 10° NE visible
14 Aug 3.1 03:47:23 10° W 03:50:17 19° NW 03:53:05 10° N visible
15 Aug 1.2 02:13:46 87° E 02:13:46 87° E 02:17:42 10° NE visible
15 Aug 3.5 03:51:01 10° WNW 03:53:08 14° NW 03:55:10 10° N visible
16 Aug 1.5 02:16:28 60° NW 02:16:28 60° NW 02:20:16 10° NNE visible
16 Aug 3.8 03:55:37 10° NW 03:56:01 10° NW 03:56:23 10° NNW visible
17 Aug 4.1 00:42:56 12° ENE 00:42:56 12° ENE 00:43:26 10° ENE visible
17 Aug 2.1 02:19:07 39° NW 02:19:07 39° NW 02:22:45 10° NNE visible
18 Aug 3.9 00:45:33 15° ENE 00:45:33 15° ENE 00:46:28 10° NE visible
18 Aug 2.7 02:21:44 27° NW 02:21:46 27° NW 02:25:09 10° NNE visible
19 Aug 3.8 00:48:09 18° NE 00:48:09 18° NE 00:49:17 10° NE visible
19 Aug 3.1 02:24:19 20° NW 02:24:33 20° NW 02:27:27 10° N visible
20 Aug 3.7 00:50:42 20° NE 00:50:42 20° NE 00:51:58 10° NE visible
20 Aug 3.5 02:26:52 14° NW 02:27:22 14° NW 02:29:34 10° N visible
21 Aug 3.7 00:53:14 20° NNE 00:53:14 20° NNE 00:54:33 10° NNE visible
21 Aug 3.9 02:29:24 10° NW 02:30:14 11° NW 02:31:11 10° NNW visible
22 Aug 3.8 00:55:45 19° NNE 00:55:45 19° NNE 00:57:03 10° NNE visible
